• In Uzbekistan
  • List of Countries
  • For 7 days
  • Water Temperature
  • Satellite Maps
  • Weather Map
  • Weather Widgets
  • user-avatar
    Login

    Hourly Weather Darwin

    Today, 21 January, Monday

    Time Temperature Precipitation Wind Pressure Humidity
    00:00 +29°C° 0.6 mm 4 mps 755 mmHg 87%
    01:00 +29°C° 0.7 mm 4 mps 755 mmHg 88%
    02:00 +28°C° 0.7 mm 4 mps 754 mmHg 89%
    03:00 +28°C° 0 mm 4 mps 754 mmHg 91%
    04:00 +28°C° 0.3 mm 4 mps 754 mmHg 91%
    05:00 +28°C° 0.3 mm 4 mps 754 mmHg 91%
    06:00 +28°C° 0.3 mm 3 mps 754 mmHg 91%
    07:00 +29°C° 0 mm 4 mps 754 mmHg 86%
    08:00 +30°C° 0 mm 4 mps 754 mmHg 82%
    09:00 +32°C° 0 mm 4 mps 754 mmHg 77%
    10:00 +33°C° 0 mm 4 mps 754 mmHg 72%
    11:00 +34°C° 0 mm 4 mps 754 mmHg 66%
    12:00 +35°C° 0 mm 3 mps 754 mmHg 60%
    13:00 +36°C° 0 mm 3 mps 753 mmHg 56%
    14:00 +37°C° 0 mm 3 mps 753 mmHg 53%
    15:00 +39°C° 0 mm 3 mps 752 mmHg 49%
    16:00 +37°C° 1 mm 4 mps 753 mmHg 57%
    17:00 +35°C° 1 mm 4 mps 753 mmHg 65%
    18:00 +34°C° 1 mm 5 mps 753 mmHg 72%
    19:00 +33°C° 0.5 mm 5 mps 753 mmHg 76%
    20:00 +32°C° 0.5 mm 5 mps 753 mmHg 79%
    21:00 +30°C° 0.5 mm 5 mps 754 mmHg 82%
    22:00 +30°C° 2 mm 5 mps 754 mmHg 82%
    23:00 +30°C° 2 mm 4 mps 754 mmHg 83%

    Tomorrow, 22 January, Tuesday

    Time Temperature Precipitation Wind Pressure Humidity
    00:00 +30°C° 2 mm 4 mps 754 mmHg 83%
    01:00 +30°C° 0.4 mm 4 mps 754 mmHg 84%
    02:00 +29°C° 0.4 mm 4 mps 753 mmHg 84%
    03:00 +29°C° 0.4 mm 4 mps 753 mmHg 85%
    04:00 +29°C° 0.1 mm 4 mps 753 mmHg 86%
    05:00 +29°C° 0.1 mm 4 mps 753 mmHg 87%
    06:00 +28°C° 0.1 mm 3 mps 754 mmHg 88%
    07:00 +29°C° 1.3 mm 4 mps 754 mmHg 86%
    08:00 +29°C° 1.3 mm 4 mps 754 mmHg 84%
    09:00 +30°C° 1.3 mm 5 mps 754 mmHg 82%
    10:00 +29°C° 4.4 mm 5 mps 754 mmHg 84%
    11:00 +29°C° 4.4 mm 5 mps 754 mmHg 85%
    12:00 +29°C° 4.4 mm 5 mps 754 mmHg 87%
    13:00 +29°C° 2.8 mm 5 mps 753 mmHg 86%
    14:00 +29°C° 2.8 mm 5 mps 753 mmHg 86%
    15:00 +30°C° 2.8 mm 4 mps 753 mmHg 85%
    16:00 +29°C° 1.5 mm 4 mps 753 mmHg 86%
    17:00 +29°C° 1.5 mm 4 mps 753 mmHg 87%
    18:00 +29°C° 1.5 mm 3 mps 753 mmHg 88%
    19:00 +29°C° 2.1 mm 3 mps 754 mmHg 89%
    20:00 +29°C° 2.1 mm 3 mps 754 mmHg 90%
    21:00 +28°C° 2.1 mm 3 mps 755 mmHg 90%
    22:00 +28°C° 1.4 mm 3 mps 755 mmHg 91%
    23:00 +28°C° 1.4 mm 3 mps 755 mmHg 91%

    Day after tomorrow, 23 January, Wednesday

    Time Temperature Precipitation Wind Pressure Humidity
    00:00 +28°C° 1.4 mm 3 mps 755 mmHg 92%
    01:00 +28°C° 2.7 mm 3 mps 754 mmHg 92%
    02:00 +28°C° 2.7 mm 3 mps 754 mmHg 92%
    03:00 +28°C° 2.7 mm 3 mps 753 mmHg 92%
    04:00 +28°C° 1.8 mm 3 mps 754 mmHg 92%
    05:00 +28°C° 1.8 mm 3 mps 754 mmHg 92%
    06:00 +28°C° 1.8 mm 3 mps 754 mmHg 92%
    07:00 +29°C° 1.5 mm 4 mps 754 mmHg 89%
    08:00 +29°C° 1.5 mm 4 mps 755 mmHg 87%
    09:00 +30°C° 1.5 mm 5 mps 755 mmHg 84%
    10:00 +30°C° 2.7 mm 5 mps 755 mmHg 83%
    11:00 +32°C° 2.7 mm 5 mps 755 mmHg 82%
    12:00 +32°C° 2.7 mm 5 mps 755 mmHg 81%
    13:00 +30°C° 3 mm 5 mps 754 mmHg 82%
    14:00 +30°C° 3 mm 5 mps 754 mmHg 83%
    15:00 +30°C° 3 mm 5 mps 753 mmHg 84%
    16:00 +30°C° 2.2 mm 4 mps 753 mmHg 86%
    17:00 +29°C° 2.2 mm 4 mps 754 mmHg 88%
    18:00 +29°C° 2.2 mm 4 mps 754 mmHg 89%
    19:00 +29°C° 2 mm 3 mps 754 mmHg 90%
    20:00 +28°C° 2 mm 3 mps 755 mmHg 90%
    21:00 +28°C° 2 mm 3 mps 755 mmHg 91%
    22:00 +28°C° 1 mm 3 mps 755 mmHg 91%
    23:00 +28°C° 1 mm 3 mps 755 mmHg 91%

    24 January, Thursday

    Time Temperature Precipitation Wind Pressure Humidity
    00:00 +28°C° 1 mm 3 mps 755 mmHg 92%
    01:00 +28°C° 2.9 mm 3 mps 755 mmHg 92%
    02:00 +28°C° 2.9 mm 3 mps 754 mmHg 92%
    03:00 +28°C° 2.9 mm 3 mps 753 mmHg 93%
    04:00 +28°C° 2.2 mm 4 mps 754 mmHg 92%
    05:00 +28°C° 2.2 mm 4 mps 754 mmHg 92%
    06:00 +28°C° 2.2 mm 4 mps 754 mmHg 92%
    07:00 +28°C° 2 mm 4 mps 754 mmHg 90%
    08:00 +29°C° 2 mm 4 mps 755 mmHg 89%
    09:00 +29°C° 2 mm 5 mps 755 mmHg 88%
    10:00 +29°C° 3 mm 5 mps 755 mmHg 86%
    11:00 +30°C° 3 mm 5 mps 755 mmHg 85%
    12:00 +30°C° 3 mm 5 mps 754 mmHg 83%
    13:00 +30°C° 2.3 mm 5 mps 754 mmHg 83%
    14:00 +30°C° 2.3 mm 5 mps 753 mmHg 83%
    15:00 +30°C° 2.3 mm 4 mps 753 mmHg 83%
    16:00 +30°C° 0.9 mm 4 mps 753 mmHg 84%
    17:00 +30°C° 0.9 mm 4 mps 753 mmHg 85%
    18:00 +29°C° 0.9 mm 4 mps 753 mmHg 86%
    19:00 +29°C° 0 mm 4 mps 754 mmHg 88%
    20:00 +29°C° 0 mm 4 mps 754 mmHg 89%
    21:00 +28°C° 0 mm 3 mps 755 mmHg 91%
    22:00 +28°C° 0 mm 3 mps 755 mmHg 91%
    23:00 +29°C° 0 mm 3 mps 755 mmHg 90%

    25 January, Friday

    Time Temperature Precipitation Wind Pressure Humidity
    00:00 +29°C° 0 mm 3 mps 755 mmHg 90%
    01:00 +28°C° 2 mm 3 mps 754 mmHg 91%
    02:00 +28°C° 2 mm 2 mps 754 mmHg 92%
    03:00 +28°C° 2 mm 2 mps 753 mmHg 93%
    04:00 +28°C° 1.2 mm 2 mps 753 mmHg 92%
    05:00 +28°C° 1.2 mm 3 mps 754 mmHg 91%
    06:00 +28°C° 1.2 mm 4 mps 754 mmHg 89%
    07:00 +29°C° 2.2 mm 4 mps 754 mmHg 87%
    08:00 +29°C° 2.2 mm 4 mps 755 mmHg 85%
    09:00 +30°C° 2.2 mm 5 mps 755 mmHg 83%
    10:00 +30°C° 3.2 mm 5 mps 755 mmHg 82%
    11:00 +32°C° 3.2 mm 4 mps 755 mmHg 81%
    12:00 +32°C° 3.2 mm 4 mps 755 mmHg 80%
    13:00 +32°C° 2.2 mm 4 mps 754 mmHg 81%
    14:00 +30°C° 2.2 mm 4 mps 754 mmHg 82%
    15:00 +30°C° 2.2 mm 4 mps 754 mmHg 83%
    16:00 +29°C° 0.4 mm 4 mps 754 mmHg 84%
    17:00 +29°C° 0.4 mm 4 mps 754 mmHg 85%
    18:00 +29°C° 0.4 mm 4 mps 754 mmHg 87%
    19:00 +29°C° 0.2 mm 4 mps 755 mmHg 87%
    20:00 +29°C° 0.2 mm 4 mps 755 mmHg 87%
    21:00 +29°C° 0.2 mm 4 mps 756 mmHg 88%
    22:00 +28°C° 0.1 mm 4 mps 756 mmHg 88%
    23:00 +28°C° 0.1 mm 5 mps 756 mmHg 88%

    26 January, Saturday

    Time Temperature Precipitation Wind Pressure Humidity
    00:00 +28°C° 0.1 mm 5 mps 756 mmHg 88%
    01:00 +28°C° 0 mm 5 mps 755 mmHg 87%
    02:00 +28°C° 0 mm 5 mps 755 mmHg 87%
    03:00 +28°C° 0 mm 5 mps 754 mmHg 86%
    04:00 +28°C° 0 mm 5 mps 755 mmHg 87%
    05:00 +28°C° 0 mm 5 mps 755 mmHg 87%
    06:00 +28°C° 0 mm 5 mps 755 mmHg 88%
    07:00 +30°C° 0.2 mm 5 mps 755 mmHg 83%
    08:00 +32°C° 0.2 mm 5 mps 756 mmHg 78%
    09:00 +33°C° 0.2 mm 5 mps 756 mmHg 74%
    10:00 +33°C° 0.1 mm 5 mps 756 mmHg 72%
    11:00 +34°C° 0.1 mm 6 mps 755 mmHg 70%
    12:00 +34°C° 0.1 mm 6 mps 755 mmHg 67%
    13:00 +33°C° 0.1 mm 6 mps 755 mmHg 70%
    14:00 +33°C° 0.1 mm 5 mps 754 mmHg 73%
    15:00 +32°C° 0.1 mm 5 mps 753 mmHg 75%
    16:00 +30°C° 0.1 mm 5 mps 754 mmHg 77%
    17:00 +30°C° 0.1 mm 4 mps 754 mmHg 79%
    18:00 +29°C° 0.1 mm 4 mps 754 mmHg 80%
    19:00 +29°C° 0 mm 4 mps 755 mmHg 80%
    20:00 +29°C° 0 mm 4 mps 755 mmHg 79%
    21:00 +30°C° 0 mm 4 mps 756 mmHg 78%
    22:00 +30°C° 0 mm 4 mps 755 mmHg 79%
    23:00 +30°C° 0 mm 5 mps 755 mmHg 79%
    Show more